Air Resources Laboratory banner image
Air Resources Laboratory web site National Oceanic and Atmospheric Administration (NOAA)

ky zone


NYZ176-178-MAZ106-OHZ011-021-055-MIZ076-KYZ091-ILZ014-INZ047-
MNZ060-ONZ431-191700-

...Gateway Observations for Savannah International...

CITY           SKY/WX    TMP DP  RH WIND       PRES   REMARKS
Savannah Arpt  CLOUDY    70  62  76 CALM      30.40S
Atlanta        DRZL/FOG  61  61 100 SE6       30.36R VSB 1/4
Charlotte      CLOUDY    51  50  96 E6        30.44S
Dallas DFW     CLOUDY    73  65  75 S18       29.83S
Houston Bush   PTSUNNY   74  66  76 S15G25    30.03R
Wash National  CLOUDY    43  39  86 S8        30.48S
Wash Dulles    CLOUDY    41  38  89 S9        30.45F
Baltimore      DRIZZLE   41  38  89 S6        30.47S
Philadelphia   LGT RAIN  47  37  68 S8        30.49S
Newark         CLOUDY    46  35  65 S9        30.51R
Laguardia      PTSUNNY   47  34  60 S12G20    30.50S
J F K          FAIR      46  37  71 S10       30.53S
Boston         FAIR      43  31  62 SW17      30.51F
Pittsburg      RAIN      50  48  93 SW7       30.15R
Akron          CLOUDY    48  45  89 S13       30.09F
Cleveland      LGT RAIN  48  45  89 S14       30.08F
Cincinnati     PTSUNNY   65  59  81 SW20G32   30.05F
Columbus       CLOUDY    53  53 100 S10       30.08S
Detroit        LGT RAIN  38  38 100 S7        30.00S VSB 3/4 WCI  33
Chicago O'Hare LGT RAIN  41  40  96 CALM      29.84S VSB 1
Minneapolis    FRZ DRZL  20  18  92 N16       29.90F WCI   6
Indianapolis   LGT RAIN  61  58  90 SW16      29.97S
Toronto Canada NOT AVBL